TimeEDT,TemperatureF,Dew PointF,Humidity,Sea Level PressureIn,VisibilityMPH,Wind Direction,Wind SpeedMPH,Gust SpeedMPH,PrecipitationIn,Events,Conditions,WindDirDegrees,DateUTC
12:55 AM,55.4,50.0,82,29.95,10.0,Calm,Calm,-,0.00,,Clear,0,2012-10-21 04:55:00
1:35 AM,55.4,51.8,88,29.96,10.0,Calm,Calm,-,0.00,,Clear,0,2012-10-21 05:35:00
1:55 AM,53.6,50.0,88,29.96,10.0,Calm,Calm,-,0.00,,Clear,0,2012-10-21 05:55:00
2:15 AM,53.6,50.0,88,29.96,10.0,Calm,Calm,-,0.00,,Clear,0,2012-10-21 06:15:00
2:35 AM,53.6,50.0,88,29.97,10.0,Calm,Calm,-,0.00,,Clear,0,2012-10-21 06:35:00
2:55 AM,53.6,50.0,88,29.97,10.0,Calm,Calm,-,0.00,,Clear,0,2012-10-21 06:55:00
3:15 AM,53.6,48.2,82,29.96,10.0,Calm,Calm,-,0.00,,Clear,0,2012-10-21 07:15:00
3:35 AM,53.6,48.2,82,29.97,10.0,Calm,Calm,-,0.00,,Clear,0,2012-10-21 07:35:00
3:55 AM,53.6,48.2,82,29.97,10.0,Calm,Calm,-,0.00,,Clear,0,2012-10-21 07:55:00
4:15 AM,53.6,48.2,82,29.98,10.0,NW,8.1,-,0.00,,Clear,310,2012-10-21 08:15:00
4:35 AM,53.6,48.2,82,29.98,10.0,Calm,Calm,-,0.00,,Clear,0,2012-10-21 08:35:00
4:55 AM,53.6,48.2,82,29.99,10.0,Calm,Calm,-,0.00,,Clear,0,2012-10-21 08:55:00
5:15 AM,53.6,48.2,82,30.00,10.0,NNW,4.6,-,0.00,,Clear,330,2012-10-21 09:15:00
5:35 AM,53.6,48.2,82,30.00,10.0,North,5.8,-,0.00,,Clear,350,2012-10-21 09:35:00
6:15 AM,55.4,50.0,82,30.02,10.0,North,11.5,-,0.00,,Clear,360,2012-10-21 10:15:00
6:55 AM,55.4,46.4,72,30.04,10.0,North,11.5,-,0.00,,Clear,360,2012-10-21 10:55:00
7:15 AM,55.4,44.6,67,30.06,10.0,North,6.9,-,0.00,,Clear,360,2012-10-21 11:15:00
7:35 AM,53.6,44.6,72,30.06,10.0,North,6.9,-,0.00,,Clear,350,2012-10-21 11:35:00
7:55 AM,55.4,44.6,67,30.06,10.0,North,5.8,-,0.00,,Clear,360,2012-10-21 11:55:00
8:15 AM,57.2,44.6,63,30.07,10.0,North,5.8,-,0.00,,Clear,360,2012-10-21 12:15:00
8:35 AM,60.8,44.6,55,30.08,10.0,North,8.1,-,0.00,,Clear,10,2012-10-21 12:35:00
8:55 AM,60.8,42.8,52,30.08,10.0,North,9.2,-,0.00,,Clear,10,2012-10-21 12:55:00
9:15 AM,62.6,42.8,48,30.09,10.0,NNE,9.2,-,0.00,,Clear,20,2012-10-21 13:15:00
9:35 AM,64.4,44.6,49,30.09,10.0,NNE,10.4,-,0.00,,Clear,20,2012-10-21 13:35:00
9:55 AM,66.2,44.6,46,30.10,10.0,NNE,10.4,-,0.00,,Clear,30,2012-10-21 13:55:00
10:15 AM,66.2,46.4,49,30.10,10.0,NNE,9.2,-,0.00,,Clear,30,2012-10-21 14:15:00
10:35 AM,69.8,46.4,43,30.11,10.0,NNE,9.2,-,0.00,,Clear,30,2012-10-21 14:35:00
10:55 AM,69.8,48.2,46,30.11,10.0,NE,9.2,-,0.00,,Clear,40,2012-10-21 14:55:00
11:15 AM,71.6,48.2,43,30.11,10.0,NE,10.4,-,0.00,,Clear,40,2012-10-21 15:15:00
11:35 AM,71.6,48.2,43,30.11,10.0,NNE,11.5,-,0.00,,Clear,30,2012-10-21 15:35:00
11:55 AM,71.6,48.2,43,30.11,10.0,NNE,8.1,-,0.00,,Clear,30,2012-10-21 15:55:00
12:15 PM,73.4,48.2,41,30.12,10.0,NE,6.9,-,0.00,,Clear,40,2012-10-21 16:15:00
12:35 PM,75.2,50.0,41,30.11,10.0,North,4.6,-,0.00,,Clear,10,2012-10-21 16:35:00
12:55 PM,75.2,50.0,41,30.11,10.0,NNE,3.5,-,0.00,,Clear,30,2012-10-21 16:55:00
1:15 PM,75.2,50.0,41,30.10,10.0,NE,4.6,-,0.00,,Clear,40,2012-10-21 17:15:00
1:35 PM,75.2,48.2,38,30.10,10.0,NNE,8.1,-,0.00,,Clear,30,2012-10-21 17:35:00
1:55 PM,75.2,48.2,38,30.09,10.0,NE,9.2,-,0.00,,Clear,40,2012-10-21 17:55:00
2:15 PM,77.0,48.2,36,30.09,10.0,North,5.8,-,0.00,,Clear,10,2012-10-21 18:15:00
2:35 PM,77.0,46.4,34,30.08,10.0,NE,5.8,-,0.00,,Clear,40,2012-10-21 18:35:00
2:55 PM,75.2,46.4,36,30.08,10.0,NNW,5.8,-,0.00,,Clear,330,2012-10-21 18:55:00
3:15 PM,75.2,46.4,36,30.08,10.0,Calm,Calm,-,0.00,,Clear,0,2012-10-21 19:15:00
3:35 PM,77.0,44.6,32,30.08,10.0,NNE,4.6,-,0.00,,Clear,20,2012-10-21 19:35:00
3:55 PM,77.0,46.4,34,30.08,10.0,NNE,3.5,-,0.00,,Clear,20,2012-10-21 19:55:00
4:35 PM,71.6,51.8,50,30.07,10.0,ESE,9.2,-,0.00,,Clear,110,2012-10-21 20:35:00
4:55 PM,71.6,50.0,46,30.08,10.0,East,8.1,-,0.00,,Clear,90,2012-10-21 20:55:00
5:15 PM,69.8,50.0,49,30.08,10.0,East,6.9,-,0.00,,Clear,100,2012-10-21 21:15:00
5:35 PM,69.8,50.0,49,30.09,10.0,East,6.9,-,0.00,,Clear,90,2012-10-21 21:35:00
5:55 PM,69.8,50.0,49,30.09,10.0,East,6.9,-,0.00,,Clear,90,2012-10-21 21:55:00
6:15 PM,68.0,50.0,52,30.10,10.0,Calm,Calm,-,0.00,,Clear,0,2012-10-21 22:15:00
6:35 PM,66.2,51.8,60,30.10,10.0,Calm,Calm,-,0.00,,Clear,0,2012-10-21 22:35:00
6:55 PM,64.4,53.6,68,30.10,10.0,Calm,Calm,-,0.00,,Clear,0,2012-10-21 22:55:00
7:15 PM,62.6,53.6,72,30.11,10.0,Calm,Calm,-,0.00,,Clear,0,2012-10-21 23:15:00
7:35 PM,60.8,53.6,77,30.12,10.0,Calm,Calm,-,0.00,,Clear,0,2012-10-21 23:35:00
7:55 PM,59.0,53.6,82,30.13,10.0,Calm,Calm,-,0.00,,Clear,0,2012-10-21 23:55:00
8:15 PM,57.2,51.8,82,30.13,10.0,Calm,Calm,-,0.00,,Clear,0,2012-10-22 00:15:00
8:35 PM,57.2,51.8,82,30.13,10.0,Calm,Calm,-,0.00,,Clear,0,2012-10-22 00:35:00
8:55 PM,57.2,51.8,82,30.13,10.0,Calm,Calm,-,0.00,,Clear,0,2012-10-22 00:55:00
9:15 PM,55.4,51.8,88,30.13,10.0,Calm,Calm,-,0.00,,Clear,0,2012-10-22 01:15:00
9:35 PM,55.4,51.8,88,30.14,10.0,Calm,Calm,-,0.00,,Clear,0,2012-10-22 01:35:00
9:55 PM,55.4,51.8,88,30.14,10.0,Calm,Calm,-,0.00,,Clear,0,2012-10-22 01:55:00
10:15 PM,53.6,50.0,88,30.14,10.0,Calm,Calm,-,0.00,,Clear,0,2012-10-22 02:15:00
10:35 PM,53.6,50.0,88,30.15,10.0,Calm,Calm,-,0.00,,Clear,0,2012-10-22 02:35:00
10:55 PM,53.6,50.0,88,30.15,10.0,Calm,Calm,-,0.00,,Clear,0,2012-10-22 02:55:00
11:15 PM,53.6,48.2,82,30.16,10.0,Calm,Calm,-,0.00,,Clear,0,2012-10-22 03:15:00
11:35 PM,51.8,48.2,88,30.16,10.0,Calm,Calm,-,0.00,,Clear,0,2012-10-22 03:35:00
11:55 PM,53.6,48.2,82,30.16,10.0,Calm,Calm,-,0.00,,Clear,0,2012-10-22 03:55:00